Wetterdaten: Freitag, 23.03.2007
Datum Zeit Temp. A. Feuchte A. Luftdruck Regen Wind Richtung Richtung Sonnenschein UV Solar Windben
23.03.2007 00:00 3,5 C 92 % 1004,2 hPa 0,0 mm 3,2 km/h (1 Bft) W-SW 247 0 min 0 UV-I 0 W/m 9,7 km/h (2 Bft)
23.03.2007 00:10 3,5 C 92 % 1004,0 hPa 0,0 mm 3,2 km/h (1 Bft) W-SW 247 0 min 0 UV-I 0 W/m 8,0 km/h (2 Bft)
23.03.2007 00:20 3,5 C 92 % 1003,9 hPa 0,0 mm 3,2 km/h (1 Bft) W 270 0 min 0 UV-I 0 W/m 9,7 km/h (2 Bft)
23.03.2007 00:30 3,6 C 92 % 1003,9 hPa 0,0 mm 3,2 km/h (1 Bft) W 270 0 min 0 UV-I 0 W/m 9,7 km/h (2 Bft)
23.03.2007 00:40 3,6 C 92 % 1003,7 hPa 0,1 mm 3,2 km/h (1 Bft) W 270 0 min 0 UV-I 0 W/m 11,3 km/h (2 Bft)
23.03.2007 00:50 3,6 C 92 % 1003,7 hPa 0,0 mm 3,2 km/h (1 Bft) W-NW 292 0 min 0 UV-I 0 W/m 11,3 km/h (2 Bft)
23.03.2007 01:00 3,6 C 92 % 1003,7 hPa 0,1 mm 3,2 km/h (1 Bft) W 270 0 min 0 UV-I 0 W/m 8,0 km/h (2 Bft)
23.03.2007 01:10 3,5 C 92 % 1003,7 hPa 0,0 mm 3,2 km/h (1 Bft) W 270 0 min 0 UV-I 0 W/m 8,0 km/h (2 Bft)
23.03.2007 01:20 3,5 C 93 % 1003,8 hPa 0,1 mm 1,6 km/h (1 Bft) W-NW 292 0 min 0 UV-I 0 W/m 6,4 km/h (2 Bft)
23.03.2007 01:30 3,4 C 93 % 1003,7 hPa 0,0 mm 3,2 km/h (1 Bft) W 270 0 min 0 UV-I 0 W/m 8,0 km/h (2 Bft)
23.03.2007 01:40 3,5 C 93 % 1003,7 hPa 0,0 mm 3,2 km/h (1 Bft) W-SW 247 0 min 0 UV-I 0 W/m 8,0 km/h (2 Bft)
23.03.2007 01:50 3,6 C 93 % 1003,6 hPa 0,0 mm 1,6 km/h (1 Bft) W 270 0 min 0 UV-I 0 W/m 8,0 km/h (2 Bft)
23.03.2007 02:00 3,7 C 93 % 1003,6 hPa 0,0 mm 1,6 km/h (1 Bft) W-NW 292 0 min 0 UV-I 0 W/m 6,4 km/h (2 Bft)
23.03.2007 02:10 3,8 C 93 % 1003,6 hPa 0,0 mm 1,6 km/h (1 Bft) SW 225 0 min 0 UV-I 0 W/m 8,0 km/h (2 Bft)
23.03.2007 02:20 3,9 C 94 % 1003,7 hPa 0,0 mm 1,6 km/h (1 Bft) S-SW 202 0 min 0 UV-I 0 W/m 6,4 km/h (2 Bft)
23.03.2007 02:30 4,1 C 93 % 1003,7 hPa 0,0 mm 1,6 km/h (1 Bft) SW 225 0 min 0 UV-I 0 W/m 6,4 km/h (2 Bft)
23.03.2007 02:40 4,2 C 93 % 1003,7 hPa 0,0 mm 1,6 km/h (1 Bft) O-NO 67 0 min 0 UV-I 0 W/m 6,4 km/h (2 Bft)
23.03.2007 02:50 4,2 C 90 % 1004,1 hPa 0,0 mm 3,2 km/h (1 Bft) O-SO 112 0 min 0 UV-I 0 W/m 14,5 km/h (3 Bft)
23.03.2007 03:00 4,1 C 88 % 1004,4 hPa 0,0 mm 4,8 km/h (1 Bft) O-NO 67 0 min 0 UV-I 0 W/m 16,1 km/h (3 Bft)
23.03.2007 03:10 3,7 C 88 % 1004,5 hPa 0,0 mm 3,2 km/h (1 Bft) O-NO 67 0 min 0 UV-I 0 W/m 9,7 km/h (2 Bft)
23.03.2007 03:20 3,4 C 87 % 1004,6 hPa 0,0 mm 3,2 km/h (1 Bft) O-NO 67 0 min 0 UV-I 0 W/m 9,7 km/h (2 Bft)
23.03.2007 03:30 3,2 C 88 % 1004,8 hPa 0,0 mm 3,2 km/h (1 Bft) O 90 0 min 0 UV-I 0 W/m 11,3 km/h (2 Bft)
23.03.2007 03:40 2,9 C 88 % 1005,0 hPa 0,0 mm 4,8 km/h (1 Bft) O 90 0 min 0 UV-I 0 W/m 14,5 km/h (3 Bft)
23.03.2007 03:50 2,6 C 89 % 1005,1 hPa 0,0 mm 3,2 km/h (1 Bft) O 90 0 min 0 UV-I 0 W/m 12,9 km/h (3 Bft)
23.03.2007 04:00 2,4 C 88 % 1005,1 hPa 0,0 mm 3,2 km/h (1 Bft) O 90 0 min 0 UV-I 0 W/m 11,3 km/h (2 Bft)
23.03.2007 04:10 2,3 C 89 % 1005,3 hPa 0,0 mm 3,2 km/h (1 Bft) O-NO 67 0 min 0 UV-I 0 W/m 9,7 km/h (2 Bft)
23.03.2007 04:20 2,2 C 89 % 1005,3 hPa 0,0 mm 4,8 km/h (1 Bft) O-NO 67 0 min 0 UV-I 0 W/m 14,5 km/h (3 Bft)
23.03.2007 04:30 2,2 C 90 % 1005,2 hPa 0,0 mm 3,2 km/h (1 Bft) O 90 0 min 0 UV-I 0 W/m 8,0 km/h (2 Bft)
23.03.2007 04:40 2,2 C 90 % 1005,1 hPa 0,0 mm 3,2 km/h (1 Bft) O-NO 67 0 min 0 UV-I 0 W/m 11,3 km/h (2 Bft)
23.03.2007 04:50 2,2 C 90 % 1005,3 hPa 0,0 mm 4,8 km/h (1 Bft) O-NO 67 0 min 0 UV-I 0 W/m 16,1 km/h (3 Bft)
23.03.2007 05:00 2,2 C 90 % 1005,3 hPa 0,0 mm 4,8 km/h (1 Bft) O 90 0 min 0 UV-I 0 W/m 14,5 km/h (3 Bft)
23.03.2007 05:10 2,2 C 89 % 1005,3 hPa 0,0 mm 4,8 km/h (1 Bft) O 90 0 min 0 UV-I 0 W/m 11,3 km/h (2 Bft)
23.03.2007 05:20 2,2 C 89 % 1005,5 hPa 0,0 mm 3,2 km/h (1 Bft) O-NO 67 0 min 0 UV-I 0 W/m 14,5 km/h (3 Bft)
23.03.2007 05:30 2,3 C 89 % 1005,5 hPa 0,0 mm 4,8 km/h (1 Bft) O 90 0 min 0 UV-I 0 W/m 14,5 km/h (3 Bft)
23.03.2007 05:40 2,3 C 89 % 1005,6 hPa 0,0 mm 4,8 km/h (1 Bft) O-NO 67 0 min 0 UV-I 0 W/m 20,9 km/h (4 Bft)
23.03.2007 05:50 2,3 C 89 % 1005,7 hPa 0,0 mm 3,2 km/h (1 Bft) O-NO 67 0 min 0 UV-I 0 W/m 9,7 km/h (2 Bft)
23.03.2007 06:00 2,3 C 89 % 1005,9 hPa 0,0 mm 3,2 km/h (1 Bft) O-NO 67 0 min 0 UV-I 0 W/m 12,9 km/h (3 Bft)
23.03.2007 06:10 2,4 C 89 % 1006,0 hPa 0,0 mm 4,8 km/h (1 Bft) O 90 0 min 0 UV-I 0 W/m 14,5 km/h (3 Bft)
23.03.2007 06:20 2,4 C 89 % 1006,2 hPa 0,0 mm 3,2 km/h (1 Bft) O 90 0 min 0 UV-I 0 W/m 9,7 km/h (2 Bft)
23.03.2007 06:30 2,5 C 88 % 1006,2 hPa 0,0 mm 3,2 km/h (1 Bft) O 90 0 min 0 UV-I 0 W/m 8,0 km/h (2 Bft)
23.03.2007 06:40 2,6 C 88 % 1006,3 hPa 0,0 mm 3,2 km/h (1 Bft) O 90 0 min 0 UV-I 0 W/m 11,3 km/h (2 Bft)
23.03.2007 06:50 2,6 C 88 % 1006,4 hPa 0,0 mm 3,2 km/h (1 Bft) O-NO 67 0 min 0 UV-I 0 W/m 9,7 km/h (2 Bft)
23.03.2007 07:00 2,7 C 88 % 1006,6 hPa 0,0 mm 3,2 km/h (1 Bft) O 90 0 min 0 UV-I 0 W/m 9,7 km/h (2 Bft)
23.03.2007 07:10 2,7 C 88 % 1006,6 hPa 0,0 mm 3,2 km/h (1 Bft) O-NO 67 0 min 0 UV-I 5 W/m 14,5 km/h (3 Bft)
23.03.2007 07:20 2,7 C 87 % 1006,6 hPa 0,0 mm 3,2 km/h (1 Bft) O 90 0 min 0 UV-I 5 W/m 14,5 km/h (3 Bft)
23.03.2007 07:30 2,7 C 87 % 1006,7 hPa 0,0 mm 3,2 km/h (1 Bft) O-NO 67 0 min 0 UV-I 9 W/m 9,7 km/h (2 Bft)
23.03.2007 07:40 2,8 C 87 % 1006,6 hPa 0,0 mm 3,2 km/h (1 Bft) O 90 0 min 0 UV-I 32 W/m 11,3 km/h (2 Bft)
23.03.2007 07:50 2,8 C 86 % 1006,7 hPa 0,0 mm 3,2 km/h (1 Bft) O 90 0 min 0 UV-I 40 W/m 9,7 km/h (2 Bft)
23.03.2007 08:00 3,0 C 86 % 1006,9 hPa 0,0 mm 3,2 km/h (1 Bft) O 90 0 min 0 UV-I 70 W/m 16,1 km/h (3 Bft)
23.03.2007 08:10 3,1 C 86 % 1006,9 hPa 0,0 mm 3,2 km/h (1 Bft) O-NO 67 0 min 0 UV-I 95 W/m 11,3 km/h (2 Bft)
23.03.2007 08:20 3,2 C 86 % 1006,9 hPa 0,0 mm 4,8 km/h (1 Bft) O 90 0 min 0 UV-I 107 W/m 9,7 km/h (2 Bft)
23.03.2007 08:30 3,3 C 86 % 1007,1 hPa 0,0 mm 4,8 km/h (1 Bft) O 90 0 min 0 UV-I 125 W/m 11,3 km/h (2 Bft)
23.03.2007 08:40 3,4 C 86 % 1007,2 hPa 0,0 mm 3,2 km/h (1 Bft) O-NO 67 0 min 0 UV-I 100 W/m 9,7 km/h (2 Bft)
23.03.2007 08:50 3,4 C 86 % 1007,5 hPa 0,0 mm 3,2 km/h (1 Bft) O 90 0 min 0 UV-I 127 W/m 9,7 km/h (2 Bft)
23.03.2007 09:00 3,5 C 85 % 1007,5 hPa 0,0 mm 4,8 km/h (1 Bft) O 90 0 min 0 UV-I 116 W/m 17,7 km/h (3 Bft)
23.03.2007 09:10 3,6 C 84 % 1007,6 hPa 0,0 mm 3,2 km/h (1 Bft) O 90 0 min 0 UV-I 107 W/m 9,7 km/h (2 Bft)
23.03.2007 09:20 3,6 C 84 % 1007,7 hPa 0,0 mm 3,2 km/h (1 Bft) O 90 0 min 0 UV-I 151 W/m 12,9 km/h (3 Bft)
23.03.2007 09:30 3,8 C 82 % 1007,8 hPa 0,0 mm 4,8 km/h (1 Bft) O 90 0 min 1 UV-I 192 W/m 11,3 km/h (2 Bft)
23.03.2007 09:40 4,0 C 82 % 1007,8 hPa 0,0 mm 4,8 km/h (1 Bft) O 90 0 min 1 UV-I 181 W/m 8,0 km/h (2 Bft)
23.03.2007 09:50 4,1 C 81 % 1007,9 hPa 0,0 mm 4,8 km/h (1 Bft) O 90 0 min 1 UV-I 214 W/m 14,5 km/h (3 Bft)
23.03.2007 10:00 4,2 C 80 % 1008,1 hPa 0,0 mm 6,4 km/h (2 Bft) O 90 10 min 1 UV-I 469 W/m 19,3 km/h (3 Bft)
23.03.2007 10:10 4,6 C 79 % 1008,4 hPa 0,0 mm 4,8 km/h (1 Bft) O-NO 67 10 min 1 UV-I 309 W/m 14,5 km/h (3 Bft)
23.03.2007 10:20 4,7 C 78 % 1008,6 hPa 0,0 mm 4,8 km/h (1 Bft) O 90 0 min 1 UV-I 288 W/m 19,3 km/h (3 Bft)
23.03.2007 10:30 4,9 C 77 % 1008,5 hPa 0,0 mm 4,8 km/h (1 Bft) O 90 10 min 1 UV-I 353 W/m 14,5 km/h (3 Bft)
23.03.2007 10:40 4,8 C 78 % 1008,7 hPa 0,0 mm 6,4 km/h (2 Bft) O 90 0 min 1 UV-I 246 W/m 17,7 km/h (3 Bft)
23.03.2007 10:50 4,8 C 78 % 1008,9 hPa 0,0 mm 4,8 km/h (1 Bft) O 90 0 min 1 UV-I 211 W/m 19,3 km/h (3 Bft)
23.03.2007 11:00 4,8 C 77 % 1009,1 hPa 0,0 mm 4,8 km/h (1 Bft) O 90 0 min 1 UV-I 221 W/m 16,1 km/h (3 Bft)
23.03.2007 11:10 4,7 C 78 % 1009,3 hPa 0,0 mm 4,8 km/h (1 Bft) O 90 0 min 1 UV-I 207 W/m 9,7 km/h (2 Bft)
23.03.2007 11:20 4,8 C 77 % 1009,5 hPa 0,0 mm 3,2 km/h (1 Bft) O 90 0 min 1 UV-I 281 W/m 14,5 km/h (3 Bft)
23.03.2007 11:30 5,1 C 76 % 1009,5 hPa 0,0 mm 4,8 km/h (1 Bft) O 90 0 min 2 UV-I 325 W/m 14,5 km/h (3 Bft)
23.03.2007 11:40 6,1 C 71 % 1009,4 hPa 0,0 mm 4,8 km/h (1 Bft) O 90 10 min 2 UV-I 751 W/m 11,3 km/h (2 Bft)
23.03.2007 11:50 6,4 C 71 % 1009,5 hPa 0,0 mm 6,4 km/h (2 Bft) O 90 10 min 2 UV-I 371 W/m 20,9 km/h (4 Bft)
23.03.2007 12:00 6,3 C 70 % 1009,5 hPa 0,0 mm 6,4 km/h (2 Bft) O 90 10 min 2 UV-I 383 W/m 17,7 km/h (3 Bft)
23.03.2007 12:10 6,2 C 71 % 1009,7 hPa 0,0 mm 4,8 km/h (1 Bft) O 90 0 min 1 UV-I 253 W/m 16,1 km/h (3 Bft)
23.03.2007 12:20 5,9 C 71 % 1010,0 hPa 0,0 mm 6,4 km/h (2 Bft) O 90 0 min 0 UV-I 104 W/m 16,1 km/h (3 Bft)
23.03.2007 12:30 5,8 C 71 % 1010,1 hPa 0,0 mm 4,8 km/h (1 Bft) O 90 0 min 1 UV-I 139 W/m 14,5 km/h (3 Bft)
23.03.2007 12:40 5,8 C 72 % 1010,3 hPa 0,0 mm 4,8 km/h (1 Bft) O 90 0 min 1 UV-I 167 W/m 14,5 km/h (3 Bft)
23.03.2007 12:50 5,9 C 72 % 1010,4 hPa 0,0 mm 3,2 km/h (1 Bft) O 90 0 min 1 UV-I 176 W/m 14,5 km/h (3 Bft)
23.03.2007 13:00 5,9 C 71 % 1010,4 hPa 0,0 mm 4,8 km/h (1 Bft) O 90 0 min 1 UV-I 151 W/m 16,1 km/h (3 Bft)
23.03.2007 13:10 5,9 C 71 % 1010,5 hPa 0,0 mm 4,8 km/h (1 Bft) O 90 0 min 0 UV-I 95 W/m 9,7 km/h (2 Bft)
23.03.2007 13:20 5,9 C 70 % 1010,8 hPa 0,0 mm 4,8 km/h (1 Bft) O 90 0 min 1 UV-I 141 W/m 17,7 km/h (3 Bft)
23.03.2007 13:30 6,0 C 69 % 1010,9 hPa 0,0 mm 4,8 km/h (1 Bft) O 90 0 min 1 UV-I 151 W/m 16,1 km/h (3 Bft)
23.03.2007 13:40 6,2 C 69 % 1010,9 hPa 0,0 mm 4,8 km/h (1 Bft) O 90 0 min 1 UV-I 227 W/m 14,5 km/h (3 Bft)
23.03.2007 13:50 6,5 C 66 % 1011,0 hPa 0,0 mm 6,4 km/h (2 Bft) O-SO 112 10 min 1 UV-I 360 W/m 14,5 km/h (3 Bft)
23.03.2007 14:00 6,6 C 66 % 1011,0 hPa 0,0 mm 4,8 km/h (1 Bft) O 90 0 min 1 UV-I 183 W/m 9,7 km/h (2 Bft)
23.03.2007 14:10 6,8 C 65 % 1011,0 hPa 0,0 mm 4,8 km/h (1 Bft) O 90 10 min 2 UV-I 338 W/m 14,5 km/h (3 Bft)
23.03.2007 14:20 7,3 C 63 % 1011,1 hPa 0,0 mm 3,2 km/h (1 Bft) O 90 0 min 1 UV-I 229 W/m 11,3 km/h (2 Bft)
23.03.2007 14:30 7,1 C 65 % 1011,2 hPa 0,0 mm 4,8 km/h (1 Bft) O 90 10 min 1 UV-I 315 W/m 9,7 km/h (2 Bft)
23.03.2007 14:40 7,6 C 62 % 1011,2 hPa 0,0 mm 4,8 km/h (1 Bft) O 90 10 min 2 UV-I 617 W/m 14,5 km/h (3 Bft)
23.03.2007 14:50 8,4 C 59 % 1011,3 hPa 0,0 mm 6,4 km/h (2 Bft) O 90 10 min 2 UV-I 707 W/m 17,7 km/h (3 Bft)
23.03.2007 15:00 8,5 C 62 % 1011,3 hPa 0,0 mm 3,2 km/h (1 Bft) O 90 0 min 1 UV-I 265 W/m 16,1 km/h (3 Bft)
23.03.2007 15:10 8,6 C 59 % 1011,3 hPa 0,0 mm 4,8 km/h (1 Bft) O 90 10 min 1 UV-I 536 W/m 19,3 km/h (3 Bft)
23.03.2007 15:20 8,3 C 57 % 1011,3 hPa 0,0 mm 6,4 km/h (2 Bft) O-SO 112 10 min 1 UV-I 482 W/m 14,5 km/h (3 Bft)
23.03.2007 15:30 8,8 C 54 % 1011,2 hPa 0,0 mm 4,8 km/h (1 Bft) O 90 10 min 1 UV-I 508 W/m 17,7 km/h (3 Bft)
23.03.2007 15:40 9,3 C 53 % 1011,3 hPa 0,0 mm 4,8 km/h (1 Bft) O 90 10 min 1 UV-I 469 W/m 17,7 km/h (3 Bft)
23.03.2007 15:50 9,6 C 53 % 1011,2 hPa 0,0 mm 6,4 km/h (2 Bft) O 90 10 min 1 UV-I 445 W/m 14,5 km/h (3 Bft)
23.03.2007 16:00 9,7 C 53 % 1011,2 hPa 0,0 mm 4,8 km/h (1 Bft) O 90 10 min 1 UV-I 471 W/m 16,1 km/h (3 Bft)
23.03.2007 16:10 9,6 C 51 % 1011,3 hPa 0,0 mm 6,4 km/h (2 Bft) O 90 10 min 1 UV-I 381 W/m 14,5 km/h (3 Bft)
23.03.2007 16:20 9,4 C 51 % 1011,4 hPa 0,0 mm 4,8 km/h (1 Bft) O 90 10 min 1 UV-I 350 W/m 14,5 km/h (3 Bft)
23.03.2007 16:30 9,8 C 49 % 1011,4 hPa 0,0 mm 4,8 km/h (1 Bft) O 90 10 min 1 UV-I 415 W/m 19,3 km/h (3 Bft)
23.03.2007 16:40 10,0 C 51 % 1011,4 hPa 0,0 mm 4,8 km/h (1 Bft) O-NO 67 10 min 0 UV-I 392 W/m 16,1 km/h (3 Bft)
23.03.2007 16:50 9,4 C 54 % 1011,6 hPa 0,0 mm 4,8 km/h (1 Bft) O 90 0 min 0 UV-I 93 W/m 14,5 km/h (3 Bft)
23.03.2007 17:00 9,1 C 58 % 1011,7 hPa 0,0 mm 4,8 km/h (1 Bft) O 90 0 min 0 UV-I 26 W/m 16,1 km/h (3 Bft)
23.03.2007 17:10 8,8 C 59 % 1011,7 hPa 0,0 mm 3,2 km/h (1 Bft) O 90 0 min 0 UV-I 39 W/m 14,5 km/h (3 Bft)
23.03.2007 17:20 8,7 C 61 % 1011,7 hPa 0,0 mm 1,6 km/h (1 Bft) O 90 0 min 0 UV-I 69 W/m 11,3 km/h (2 Bft)
23.03.2007 17:30 8,6 C 62 % 1011,9 hPa 0,0 mm 3,2 km/h (1 Bft) O 90 0 min 0 UV-I 70 W/m 17,7 km/h (3 Bft)
23.03.2007 17:40 8,5 C 64 % 1012,0 hPa 0,0 mm 1,6 km/h (1 Bft) O-NO 67 0 min 0 UV-I 46 W/m 6,4 km/h (2 Bft)
23.03.2007 17:50 8,2 C 64 % 1012,1 hPa 0,0 mm 1,6 km/h (1 Bft) O 90 0 min 0 UV-I 40 W/m 6,4 km/h (2 Bft)
23.03.2007 18:00 8,1 C 65 % 1012,1 hPa 0,0 mm 1,6 km/h (1 Bft) O 90 0 min 0 UV-I 40 W/m 6,4 km/h (2 Bft)
23.03.2007 18:10 7,9 C 66 % 1012,1 hPa 0,0 mm 1,6 km/h (1 Bft) O 90 0 min 0 UV-I 32 W/m 6,4 km/h (2 Bft)
23.03.2007 18:20 7,8 C 67 % 1012,2 hPa 0,0 mm 1,6 km/h (1 Bft) O 90 10 min 0 UV-I 28 W/m 6,4 km/h (2 Bft)
23.03.2007 18:30 7,6 C 68 % 1012,2 hPa 0,0 mm 0,0 km/h (0 Bft) O 90 10 min 0 UV-I 19 W/m 3,2 km/h (1 Bft)
23.03.2007 18:40 7,4 C 69 % 1012,2 hPa 0,0 mm 0,0 km/h (0 Bft) N 0 0 min 0 UV-I 0 W/m 0,0 km/h (0 Bft)
23.03.2007 18:50 7,4 C 70 % 1012,2 hPa 0,0 mm 0,0 km/h (0 Bft) O 90 0 min 0 UV-I 0 W/m 1,6 km/h (1 Bft)
23.03.2007 19:00 7,4 C 71 % 1012,2 hPa 0,0 mm 0,0 km/h (0 Bft) O 90 0 min 0 UV-I 0 W/m 1,6 km/h (1 Bft)
23.03.2007 19:10 7,3 C 71 % 1012,2 hPa 0,0 mm 0,0 km/h (0 Bft) S 180 0 min 0 UV-I 0 W/m 3,2 km/h (1 Bft)
23.03.2007 19:20 7,2 C 72 % 1012,4 hPa 0,0 mm 0,0 km/h (0 Bft) O-SO 112 0 min 0 UV-I 0 W/m 1,6 km/h (1 Bft)
23.03.2007 19:30 6,8 C 74 % 1012,4 hPa 0,0 mm 0,0 km/h (0 Bft) N 0 0 min 0 UV-I 0 W/m 0,0 km/h (0 Bft)
23.03.2007 19:40 6,4 C 76 % 1012,4 hPa 0,0 mm 0,0 km/h (0 Bft) N 0 0 min 0 UV-I 0 W/m 0,0 km/h (0 Bft)
23.03.2007 19:50 6,1 C 78 % 1012,4 hPa 0,0 mm 0,0 km/h (0 Bft) N 0 0 min 0 UV-I 0 W/m 0,0 km/h (0 Bft)
23.03.2007 20:00 5,6 C 80 % 1012,4 hPa 0,0 mm 0,0 km/h (0 Bft) N 0 0 min 0 UV-I 0 W/m 0,0 km/h (0 Bft)
23.03.2007 20:10 5,6 C 79 % 1012,3 hPa 0,0 mm 0,0 km/h (0 Bft) N 0 0 min 0 UV-I 0 W/m 0,0 km/h (0 Bft)
23.03.2007 20:20 5,9 C 78 % 1012,4 hPa 0,0 mm 0,0 km/h (0 Bft) O-SO 112 0 min 0 UV-I 0 W/m 1,6 km/h (1 Bft)
23.03.2007 20:30 6,2 C 77 % 1012,4 hPa 0,0 mm 0,0 km/h (0 Bft) SW 225 0 min 0 UV-I 0 W/m 3,2 km/h (1 Bft)
23.03.2007 20:40 6,4 C 76 % 1012,4 hPa 0,0 mm 0,0 km/h (0 Bft) W-SW 247 0 min 0 UV-I 0 W/m 3,2 km/h (1 Bft)
23.03.2007 20:50 6,4 C 75 % 1012,4 hPa 0,0 mm 1,6 km/h (1 Bft) O-NO 67 0 min 0 UV-I 0 W/m 4,8 km/h (1 Bft)
23.03.2007 21:00 6,5 C 73 % 1012,4 hPa 0,0 mm 1,6 km/h (1 Bft) O 90 0 min 0 UV-I 0 W/m 6,4 km/h (2 Bft)
23.03.2007 21:10 6,8 C 69 % 1012,3 hPa 0,0 mm 1,6 km/h (1 Bft) O-NO 67 0 min 0 UV-I 0 W/m 8,0 km/h (2 Bft)
23.03.2007 21:20 7,1 C 71 % 1012,3 hPa 0,0 mm 0,0 km/h (0 Bft) O-NO 67 0 min 0 UV-I 0 W/m 3,2 km/h (1 Bft)
23.03.2007 21:30 6,8 C 73 % 1012,2 hPa 0,0 mm 0,0 km/h (0 Bft) S-SW 202 0 min 0 UV-I 0 W/m 3,2 km/h (1 Bft)
23.03.2007 21:40 6,8 C 70 % 1012,2 hPa 0,0 mm 1,6 km/h (1 Bft) O-NO 67 0 min 0 UV-I 0 W/m 4,8 km/h (1 Bft)
23.03.2007 21:50 7,0 C 72 % 1012,1 hPa 0,0 mm 0,0 km/h (0 Bft) O 90 0 min 0 UV-I 0 W/m 3,2 km/h (1 Bft)
23.03.2007 22:00 6,8 C 72 % 1012,3 hPa 0,0 mm 0,0 km/h (0 Bft) W-NW 292 0 min 0 UV-I 0 W/m 6,4 km/h (2 Bft)
23.03.2007 22:10 6,7 C 72 % 1012,1 hPa 0,0 mm 0,0 km/h (0 Bft) W-NW 292 0 min 0 UV-I 0 W/m 3,2 km/h (1 Bft)
23.03.2007 22:20 6,7 C 72 % 1011,9 hPa 0,0 mm 1,6 km/h (1 Bft) W-SW 247 0 min 0 UV-I 0 W/m 3,2 km/h (1 Bft)
23.03.2007 22:30 6,7 C 74 % 1011,8 hPa 0,0 mm 1,6 km/h (1 Bft) O 90 0 min 0 UV-I 0 W/m 4,8 km/h (1 Bft)
23.03.2007 22:40 6,7 C 76 % 1011,7 hPa 0,0 mm 0,0 km/h (0 Bft) O-SO 112 0 min 0 UV-I 0 W/m 6,4 km/h (2 Bft)
23.03.2007 22:50 6,6 C 78 % 1011,5 hPa 0,0 mm 0,0 km/h (0 Bft) NW 315 0 min 0 UV-I 0 W/m 3,2 km/h (1 Bft)
23.03.2007 23:00 6,4 C 79 % 1011,5 hPa 0,0 mm 1,6 km/h (1 Bft) W 270 0 min 0 UV-I 0 W/m 6,4 km/h (2 Bft)
23.03.2007 23:10 6,3 C 81 % 1011,5 hPa 0,0 mm 1,6 km/h (1 Bft) O-SO 112 0 min 0 UV-I 0 W/m 4,8 km/h (1 Bft)
23.03.2007 23:20 6,2 C 83 % 1011,4 hPa 0,0 mm 1,6 km/h (1 Bft) O-SO 112 0 min 0 UV-I 0 W/m 4,8 km/h (1 Bft)
23.03.2007 23:30 6,1 C 84 % 1011,4 hPa 0,0 mm 1,6 km/h (1 Bft) O 90 0 min 0 UV-I 0 W/m 3,2 km/h (1 Bft)
23.03.2007 23:40 6,0 C 85 % 1011,3 hPa 0,0 mm 1,6 km/h (1 Bft) W-NW 292 0 min 0 UV-I 0 W/m 4,8 km/h (1 Bft)
23.03.2007 23:50 5,9 C 86 % 1011,2 hPa 0,0 mm 1,6 km/h (1 Bft) W-SW 247 0 min 0 UV-I 0 W/m 4,8 km/h (1 Bft)
_ Min-Zeit 04:20 16:30 01:50 - 18:30 - - - - - 18:40
Minimum _ 2,2 C 49 % 1003,6 hPa - 0,0 km/h (0 Bft) - - - - - 0,0 km/h (0 Bft)
_ Max-Zeit 16:40 02:20 19:20 00:40 10:00 - - 10:00 11:30 11:40 05:40
Maximum _ 10,1 C 94 % 1012,4 hPa 0,1 mm 6,4 km/h
O (2 Bft)
- - 10 min 2 UV-I 751 W/m 20,9 km/h
N (4 Bft)
Durchschnitt _ 5,3 C 78 % 1008,8 hPa #0,2 mm 3,2 km/h (1 Bft) O - #3:50 h 1 UV-I 227 W/m 10,5 km/h (2 Bft)